User: anonymous   Login
Location: Allentsteig
(48.6833°N, 15.3167°E)
Time: 02:20:58
(UTC+00:00)
Language:

Cosmos 1844 Rocket - Orbit

View from above orbital plane
View from above orbital plane
View from above satellite
View from above satellite

Ground track
Ground track

The orbit data is extracted from the following two-line orbital elements,

1 17974U 87041B   20338.48604778 -.00000228  00000-0 -89035-4 0  9991
2 17974  71.0069 123.9186 0016343 262.6346 153.3987 14.17269812735955
Epoch (UTC): 03 December 2020 11:39:54
Eccentricity: 0.0016343
inclination: 71.0069°
perigee height: 823 km
apogee height: 846 km
right ascension of ascending node: 123.9186°
argument of perigee: 262.6346°
revolutions per day: 14.17269812
mean anomaly at epoch: 153.3987°
orbit number at epoch: 73595

The dashed part of the orbit path shows where the satellite is in the earth's shadow,  

DLR